Weather in Galimy

Russia / Magadan District     62°21′15″N   155°57′28″E
temp.,
°C
wind,
m/s
gust,
m/s
humid.,
%
clouds,
%
prec.,
mm/h
press.,
hPa
HPBL,
m
7 may, fri
fri723:00−7n11918 0.1 101810
02:00−11nnw229757 0.0 101811
05:00−9nnw2210095 0.1 101766
08:00−5n229491 0.1 1015284
11:00−2n338495 0.1 1014702
14:00−2n2383100 0.1 1014573
17:00−2nne238199 0.3 1013555
20:00−5n349448 0.3 1015147
8 may, sat
sat823:00−10nw329220 0.3 101720
02:00−11nw329431 0.0 101817
05:00−10nw229591 0.1 101926
08:00−6nw238998 0.1 1018293
11:00−4nnw3473100 0.2 1017982
14:00−3nnw4571100 0.1 10161148
17:00−3n467555 0.2 1016900
20:00−7nw338815 0.0 101839
9 may, sun
sun923:00−10nw32925 0.0 102020
02:00−12nw229532 0.0 102021
05:00−12nnw219760 0.0 102115
08:00−7nnw119133 0.0 1019115
11:00−4ene00765 0.0 1018305
14:00−2ese117642 0.0 1017411
17:00−1se1174100 0.0 1017382
20:00−4se1186100 0.0 101812
10 may, mon
mon1023:00−7s1191100 0.0 101917
02:00−8ssw1192100 0.0 101917
05:00−9sw0094100 0.0 102017
08:00−5sse11865 0.0 1019128
11:00−2sse11765 0.0 1018358
14:000sse11705 0.0 1017530
17:000ese11694 0.0 1017458
20:00−3se11815 0.0 101836
11 may, tue
tue1123:00−5ssw118818 0.0 101918
02:00−7sw119113 0.0 101917
05:00−7nnw119467 0.0 101915
08:00−4se0082100 0.0 1018116
11:00−1ene1176100 0.0 1017300
14:000n2277100 0.0 1016435
17:00+1n227553 0.0 1016390
20:00−1nw11845 0.0 101633